Time,TemperatureF,DewpointF,PressureIn,WindDirection,WindDirectionDegrees,WindSpeedMPH,WindSpeedGustMPH,Humidity,HourlyPrecipIn,Conditions,Clouds,dailyrainin,SolarRadiationWatts/m^2,SoftwareType,DateUTC
2013-05-31 00:02:00,76.0,64.0,-100.00,SE,128,3.0,9.0,66,0.00,,,0.00,0.000000,,2013-05-31 04:02:00,
2013-05-31 00:12:00,73.0,63.0,-100.00,South,189,0.0,8.0,72,0.00,,,0.00,0.000000,,2013-05-31 04:12:00,
2013-05-31 00:33:00,73.0,63.0,-100.00,South,189,0.0,8.0,72,0.00,,,0.00,0.000000,,2013-05-31 04:33:00,
2013-05-31 00:43:00,73.0,63.0,-100.00,South,189,0.0,8.0,72,0.00,,,0.00,0.000000,,2013-05-31 04:43:00,
2013-05-31 00:53:00,73.0,63.0,-100.00,South,189,0.0,8.0,72,0.00,,,0.00,0.000000,,2013-05-31 04:53:00,
2013-05-31 01:02:00,73.0,63.0,-100.00,South,189,0.0,8.0,72,0.00,,,0.00,0.000000,,2013-05-31 05:02:00,
2013-05-31 01:12:00,71.0,63.0,-100.00,SE,130,3.0,7.0,77,0.00,,,0.00,0.000000,,2013-05-31 05:12:00,
2013-05-31 01:32:00,71.0,63.0,-100.00,SE,130,3.0,7.0,77,0.00,,,0.00,0.000000,,2013-05-31 05:32:00,
2013-05-31 01:42:00,71.0,63.0,-100.00,SE,130,3.0,7.0,77,0.00,,,0.00,0.000000,,2013-05-31 05:42:00,
2013-05-31 01:52:00,71.0,63.0,-100.00,SE,130,3.0,7.0,77,0.00,,,0.00,0.000000,,2013-05-31 05:52:00,
2013-05-31 02:02:00,71.0,63.0,-100.00,SE,130,3.0,7.0,77,0.00,,,0.00,0.000000,,2013-05-31 06:02:00,
2013-05-31 02:32:00,70.0,65.0,-100.00,SE,143,0.0,6.0,83,0.00,,,0.00,0.000000,,2013-05-31 06:32:00,
2013-05-31 02:42:00,70.0,65.0,-100.00,SE,143,0.0,6.0,83,0.00,,,0.00,0.000000,,2013-05-31 06:42:00,
2013-05-31 02:52:00,70.0,65.0,-100.00,SE,143,0.0,6.0,83,0.00,,,0.00,0.000000,,2013-05-31 06:52:00,
2013-05-31 03:02:00,70.0,65.0,-100.00,SE,143,0.0,6.0,83,0.00,,,0.00,0.000000,,2013-05-31 07:02:00,
2013-05-31 03:11:00,70.0,65.0,-100.00,SE,143,0.0,6.0,83,0.00,,,0.00,0.000000,,2013-05-31 07:11:00,
2013-05-31 03:32:00,67.0,64.0,-100.00,SE,133,0.0,2.0,91,0.00,,,0.00,0.000000,,2013-05-31 07:32:00,
2013-05-31 03:42:00,67.0,64.0,-100.00,SE,133,0.0,2.0,91,0.00,,,0.00,0.000000,,2013-05-31 07:42:00,
2013-05-31 03:53:00,67.0,64.0,-100.00,SE,133,0.0,2.0,91,0.00,,,0.00,0.000000,,2013-05-31 07:53:00,
2013-05-31 04:02:00,67.0,64.0,-100.00,SE,133,0.0,2.0,91,0.00,,,0.00,0.000000,,2013-05-31 08:02:00,
2013-05-31 04:11:00,67.0,64.0,-100.00,SE,133,0.0,2.0,91,0.00,,,0.00,0.000000,,2013-05-31 08:11:00,
2013-05-31 04:32:00,67.0,65.0,-100.00,ESE,122,0.0,4.0,93,0.00,,,-99.99,0.000000,,2013-05-31 08:32:00,
2013-05-31 04:42:00,67.0,65.0,-100.00,ESE,122,0.0,4.0,93,0.00,,,-99.99,0.000000,,2013-05-31 08:42:00,
2013-05-31 04:52:00,67.0,65.0,-100.00,ESE,122,0.0,4.0,93,0.00,,,-99.99,0.000000,,2013-05-31 08:52:00,
2013-05-31 05:01:00,67.0,65.0,-100.00,ESE,122,0.0,4.0,93,0.00,,,-99.99,0.000000,,2013-05-31 09:01:00,
2013-05-31 05:11:00,67.0,65.0,-100.00,ESE,122,0.0,4.0,93,0.00,,,-99.99,0.000000,,2013-05-31 09:11:00,
2013-05-31 05:12:00,66.0,65.0,-100.00,ESE,113,1.0,4.0,96,0.00,,,0.00,0.000000,,2013-05-31 09:12:00,
2013-05-31 05:32:00,66.0,65.0,-100.00,ESE,113,1.0,4.0,96,0.00,,,0.00,0.000000,,2013-05-31 09:32:00,
2013-05-31 05:43:00,66.0,65.0,-100.00,ESE,113,1.0,4.0,96,0.00,,,0.00,0.000000,,2013-05-31 09:43:00,
2013-05-31 05:53:00,66.0,65.0,-100.00,ESE,113,1.0,4.0,96,0.00,,,0.00,0.000000,,2013-05-31 09:53:00,
2013-05-31 06:02:00,66.0,65.0,-100.00,ESE,113,1.0,4.0,96,0.00,,,0.00,0.000000,,2013-05-31 10:02:00,
2013-05-31 06:12:00,67.0,66.0,-100.00,SE,126,1.0,5.0,98,0.00,,,0.00,0.000000,,2013-05-31 10:12:00,
2013-05-31 06:33:00,67.0,66.0,-100.00,SE,126,1.0,5.0,98,0.00,,,0.00,0.000000,,2013-05-31 10:33:00,
2013-05-31 06:42:00,67.0,66.0,-100.00,SE,126,1.0,5.0,98,0.00,,,0.00,0.000000,,2013-05-31 10:42:00,
2013-05-31 06:52:00,67.0,66.0,-100.00,SE,126,1.0,5.0,98,0.00,,,0.00,0.000000,,2013-05-31 10:52:00,
2013-05-31 07:02:00,67.0,66.0,-100.00,SE,126,1.0,5.0,98,0.00,,,0.00,0.000000,,2013-05-31 11:02:00,
2013-05-31 07:32:00,68.0,68.0,-100.00,SE,125,2.0,5.0,99,0.00,,,0.00,6.000000,,2013-05-31 11:32:00,
2013-05-31 07:42:00,68.0,68.0,-100.00,SE,125,2.0,5.0,99,0.00,,,0.00,6.000000,,2013-05-31 11:42:00,
2013-05-31 07:52:00,68.0,68.0,-100.00,SE,125,2.0,5.0,99,0.00,,,0.00,6.000000,,2013-05-31 11:52:00,
2013-05-31 08:01:00,68.0,68.0,-100.00,SE,125,2.0,5.0,99,0.00,,,0.00,6.000000,,2013-05-31 12:01:00,
2013-05-31 08:11:00,68.0,68.0,-100.00,SE,125,2.0,5.0,99,0.00,,,0.00,6.000000,,2013-05-31 12:11:00,
2013-05-31 08:32:00,70.0,70.0,-100.00,SE,141,1.0,4.0,99,0.00,,,0.00,56.000000,,2013-05-31 12:32:00,
2013-05-31 08:42:00,70.0,70.0,-100.00,SE,141,1.0,4.0,99,0.00,,,0.00,56.000000,,2013-05-31 12:42:00,
2013-05-31 08:52:00,70.0,70.0,-100.00,SE,141,1.0,4.0,99,0.00,,,0.00,56.000000,,2013-05-31 12:52:00,
2013-05-31 09:01:00,70.0,70.0,-100.00,SE,141,1.0,4.0,99,0.00,,,0.00,56.000000,,2013-05-31 13:01:00,
2013-05-31 09:11:00,70.0,70.0,-100.00,SE,141,1.0,4.0,99,0.00,,,0.00,56.000000,,2013-05-31 13:11:00,
2013-05-31 09:32:00,74.0,68.0,-100.00,SSE,149,2.0,5.0,83,0.00,,,0.00,147.000000,,2013-05-31 13:32:00,
2013-05-31 09:42:00,74.0,68.0,-100.00,SSE,149,2.0,5.0,83,0.00,,,0.00,147.000000,,2013-05-31 13:42:00,
2013-05-31 09:52:00,74.0,68.0,-100.00,SSE,149,2.0,5.0,83,0.00,,,0.00,147.000000,,2013-05-31 13:52:00,
2013-05-31 10:02:00,74.0,68.0,-100.00,SSE,149,2.0,5.0,83,0.00,,,0.00,147.000000,,2013-05-31 14:02:00,
2013-05-31 10:11:00,74.0,68.0,-100.00,SSE,149,2.0,5.0,83,0.00,,,0.00,147.000000,,2013-05-31 14:11:00,
2013-05-31 10:32:00,78.0,68.0,-100.00,South,185,2.0,7.0,71,0.00,,,0.00,185.000000,,2013-05-31 14:32:00,
2013-05-31 10:42:00,78.0,68.0,-100.00,South,185,2.0,7.0,71,0.00,,,0.00,185.000000,,2013-05-31 14:42:00,
2013-05-31 10:52:00,78.0,68.0,-100.00,South,185,2.0,7.0,71,0.00,,,0.00,185.000000,,2013-05-31 14:52:00,
2013-05-31 11:01:00,78.0,68.0,-100.00,South,185,2.0,7.0,71,0.00,,,0.00,185.000000,,2013-05-31 15:01:00,
2013-05-31 11:11:00,78.0,68.0,-100.00,South,185,2.0,7.0,71,0.00,,,0.00,185.000000,,2013-05-31 15:11:00,
2013-05-31 11:12:00,78.0,67.0,-100.00,SSW,201,3.0,6.0,68,0.00,,,0.00,356.000000,,2013-05-31 15:12:00,
2013-05-31 11:33:00,78.0,67.0,-100.00,SSW,201,3.0,6.0,68,0.00,,,0.00,356.000000,,2013-05-31 15:33:00,
2013-05-31 11:43:00,78.0,67.0,-100.00,SSW,201,3.0,6.0,68,0.00,,,0.00,356.000000,,2013-05-31 15:43:00,
2013-05-31 11:53:00,78.0,67.0,-100.00,SSW,201,3.0,6.0,68,0.00,,,0.00,356.000000,,2013-05-31 15:53:00,
2013-05-31 12:03:00,78.0,67.0,-100.00,SSW,201,3.0,6.0,68,0.00,,,0.00,356.000000,,2013-05-31 16:03:00,
2013-05-31 12:12:00,82.0,66.0,-100.00,South,190,2.0,7.0,59,0.00,,,0.00,651.000000,,2013-05-31 16:12:00,
2013-05-31 12:33:00,82.0,66.0,-100.00,South,190,2.0,7.0,59,0.00,,,0.00,651.000000,,2013-05-31 16:33:00,
2013-05-31 12:42:00,82.0,66.0,-100.00,South,190,2.0,7.0,59,0.00,,,0.00,651.000000,,2013-05-31 16:42:00,
2013-05-31 12:53:00,82.0,66.0,-100.00,South,190,2.0,7.0,59,0.00,,,0.00,651.000000,,2013-05-31 16:53:00,
2013-05-31 13:02:00,82.0,66.0,-100.00,South,190,2.0,7.0,59,0.00,,,0.00,651.000000,,2013-05-31 17:02:00,
2013-05-31 13:12:00,84.0,65.0,-100.00,SSW,212,2.0,7.0,53,0.00,,,0.00,822.000000,,2013-05-31 17:12:00,
2013-05-31 13:32:00,84.0,65.0,-100.00,SSW,212,2.0,7.0,53,0.00,,,0.00,822.000000,,2013-05-31 17:32:00,
2013-05-31 13:42:00,84.0,65.0,-100.00,SSW,212,2.0,7.0,53,0.00,,,0.00,822.000000,,2013-05-31 17:42:00,
2013-05-31 13:52:00,84.0,65.0,-100.00,SSW,212,2.0,7.0,53,0.00,,,0.00,822.000000,,2013-05-31 17:52:00,
2013-05-31 14:02:00,84.0,65.0,-100.00,SSW,212,2.0,7.0,53,0.00,,,0.00,822.000000,,2013-05-31 18:02:00,
2013-05-31 14:32:00,88.0,65.0,-100.00,SSW,195,1.0,7.0,47,0.00,,,0.00,987.000000,,2013-05-31 18:32:00,
2013-05-31 14:42:00,88.0,65.0,-100.00,SSW,195,1.0,7.0,47,0.00,,,0.00,987.000000,,2013-05-31 18:42:00,
2013-05-31 14:52:00,88.0,65.0,-100.00,SSW,195,1.0,7.0,47,0.00,,,0.00,987.000000,,2013-05-31 18:52:00,
2013-05-31 15:02:00,88.0,65.0,-100.00,SSW,195,1.0,7.0,47,0.00,,,0.00,987.000000,,2013-05-31 19:02:00,
2013-05-31 15:11:00,88.0,65.0,-100.00,SSW,195,1.0,7.0,47,0.00,,,0.00,987.000000,,2013-05-31 19:11:00,
2013-05-31 15:32:00,87.0,65.0,-100.00,SW,229,2.0,6.0,48,0.00,,,0.00,664.000000,,2013-05-31 19:32:00,
2013-05-31 15:42:00,87.0,65.0,-100.00,SW,229,2.0,6.0,48,0.00,,,0.00,664.000000,,2013-05-31 19:42:00,
2013-05-31 15:52:00,87.0,65.0,-100.00,SW,229,2.0,6.0,48,0.00,,,0.00,664.000000,,2013-05-31 19:52:00,
2013-05-31 16:02:00,87.0,65.0,-100.00,SW,229,2.0,6.0,48,0.00,,,0.00,664.000000,,2013-05-31 20:02:00,
2013-05-31 16:11:00,87.0,65.0,-100.00,SW,229,2.0,6.0,48,0.00,,,0.00,664.000000,,2013-05-31 20:11:00,
2013-05-31 16:32:00,87.0,64.0,-100.00,ESE,119,2.0,6.0,46,0.00,,,0.00,452.000000,,2013-05-31 20:32:00,
2013-05-31 16:42:00,87.0,64.0,-100.00,ESE,119,2.0,6.0,46,0.00,,,0.00,452.000000,,2013-05-31 20:42:00,
2013-05-31 16:52:00,87.0,64.0,-100.00,ESE,119,2.0,6.0,46,0.00,,,0.00,452.000000,,2013-05-31 20:52:00,
2013-05-31 17:01:00,87.0,64.0,-100.00,ESE,119,2.0,6.0,46,0.00,,,0.00,452.000000,,2013-05-31 21:01:00,
2013-05-31 17:11:00,87.0,64.0,-100.00,ESE,119,2.0,6.0,46,0.00,,,0.00,452.000000,,2013-05-31 21:11:00,
2013-05-31 17:12:00,87.0,61.0,-100.00,SSE,165,1.0,8.0,42,0.00,,,0.00,165.000000,,2013-05-31 21:12:00,
2013-05-31 17:33:00,87.0,61.0,-100.00,SSE,165,1.0,8.0,42,0.00,,,0.00,165.000000,,2013-05-31 21:33:00,
2013-05-31 17:43:00,87.0,61.0,-100.00,SSE,165,1.0,8.0,42,0.00,,,0.00,165.000000,,2013-05-31 21:43:00,
2013-05-31 17:54:00,87.0,61.0,-100.00,SSE,165,1.0,8.0,42,0.00,,,0.00,165.000000,,2013-05-31 21:54:00,
2013-05-31 18:03:00,87.0,61.0,-100.00,SSE,165,1.0,8.0,42,0.00,,,0.00,165.000000,,2013-05-31 22:03:00,
2013-05-31 18:12:00,88.0,63.0,-100.00,ESE,118,3.0,9.0,44,0.00,,,0.00,138.000000,,2013-05-31 22:12:00,
2013-05-31 18:33:00,88.0,63.0,-100.00,ESE,118,3.0,9.0,44,0.00,,,0.00,138.000000,,2013-05-31 22:33:00,
2013-05-31 18:42:00,88.0,63.0,-100.00,ESE,118,3.0,9.0,44,0.00,,,0.00,138.000000,,2013-05-31 22:42:00,
2013-05-31 18:53:00,88.0,63.0,-100.00,ESE,118,3.0,9.0,44,0.00,,,0.00,138.000000,,2013-05-31 22:53:00,
2013-05-31 19:02:00,88.0,63.0,-100.00,ESE,118,3.0,9.0,44,0.00,,,0.00,138.000000,,2013-05-31 23:02:00,
2013-05-31 19:12:00,83.0,65.0,-100.00,East,94,0.0,6.0,55,0.00,,,0.00,51.000000,,2013-05-31 23:12:00,
2013-05-31 19:32:00,83.0,65.0,-100.00,East,94,0.0,6.0,55,0.00,,,0.00,51.000000,,2013-05-31 23:32:00,
2013-05-31 19:42:00,83.0,65.0,-100.00,East,94,0.0,6.0,55,0.00,,,0.00,51.000000,,2013-05-31 23:42:00,
2013-05-31 19:52:00,83.0,65.0,-100.00,East,94,0.0,6.0,55,0.00,,,0.00,51.000000,,2013-05-31 23:52:00,
2013-05-31 20:01:00,83.0,65.0,-100.00,East,94,0.0,6.0,55,0.00,,,0.00,51.000000,,2013-06-01 00:01:00,
2013-05-31 20:32:00,83.0,66.0,-100.00,SE,139,1.0,3.0,56,0.00,,,-99.99,63.000000,,2013-06-01 00:32:00,
2013-05-31 20:42:00,83.0,66.0,-100.00,SE,139,1.0,3.0,56,0.00,,,-99.99,63.000000,,2013-06-01 00:42:00,
2013-05-31 20:52:00,83.0,66.0,-100.00,SE,139,1.0,3.0,56,0.00,,,-99.99,63.000000,,2013-06-01 00:52:00,
2013-05-31 21:01:00,83.0,66.0,-100.00,SE,139,1.0,3.0,56,0.00,,,-99.99,63.000000,,2013-06-01 01:01:00,
2013-05-31 21:11:00,83.0,66.0,-100.00,SE,139,1.0,3.0,56,0.00,,,-99.99,63.000000,,2013-06-01 01:11:00,
2013-05-31 21:12:00,79.0,65.0,-100.00,SE,126,3.0,9.0,63,0.00,,,0.00,3.000000,,2013-06-01 01:12:00,
2013-05-31 21:32:00,79.0,65.0,-100.00,SE,126,3.0,9.0,63,0.00,,,0.00,3.000000,,2013-06-01 01:32:00,
2013-05-31 21:42:00,79.0,65.0,-100.00,SE,126,3.0,9.0,63,0.00,,,0.00,3.000000,,2013-06-01 01:42:00,
2013-05-31 21:52:00,79.0,65.0,-100.00,SE,126,3.0,9.0,63,0.00,,,0.00,3.000000,,2013-06-01 01:52:00,
2013-05-31 22:02:00,79.0,65.0,-100.00,SE,126,3.0,9.0,63,0.00,,,0.00,3.000000,,2013-06-01 02:02:00,
2013-05-31 22:32:00,77.0,66.0,-100.00,SE,128,3.0,8.0,68,0.00,,,0.00,0.000000,,2013-06-01 02:32:00,
2013-05-31 22:42:00,77.0,66.0,-100.00,SE,128,3.0,8.0,68,0.00,,,0.00,0.000000,,2013-06-01 02:42:00,
2013-05-31 22:52:00,77.0,66.0,-100.00,SE,128,3.0,8.0,68,0.00,,,0.00,0.000000,,2013-06-01 02:52:00,
2013-05-31 23:02:00,77.0,66.0,-100.00,SE,128,3.0,8.0,68,0.00,,,0.00,0.000000,,2013-06-01 03:02:00,
2013-05-31 23:11:00,77.0,66.0,-100.00,SE,128,3.0,8.0,68,0.00,,,0.00,0.000000,,2013-06-01 03:11:00,
2013-05-31 23:12:00,75.0,65.0,-100.00,SE,130,3.0,7.0,71,0.00,,,0.00,0.000000,,2013-06-01 03:12:00,
2013-05-31 23:33:00,75.0,65.0,-100.00,SE,130,3.0,7.0,71,0.00,,,0.00,0.000000,,2013-06-01 03:33:00,
2013-05-31 23:43:00,75.0,65.0,-100.00,SE,130,3.0,7.0,71,0.00,,,0.00,0.000000,,2013-06-01 03:43:00,
2013-05-31 23:53:00,75.0,65.0,-100.00,SE,130,3.0,7.0,71,0.00,,,0.00,0.000000,,2013-06-01 03:53:00,